SCP
0 0 0 0 0 -0 0 0 0 0 0 0 0 0 0 0 -0 0 -0 -0 0 -0 -0 -0 0 0 -0 0 0 0 0 0 0 0 0 -0 -0 -0 -0 0 0 0 0 0 0 0 0 0 0
0 -0 -0 0 0 0 0 0 0 0 0 0 0 0 0 0 0 0 0 0 0 -0 -0 -0 -0 0 0 0 0 0 0 0 0 0 0 0 0 0 0 -0 -0 0 0 0 0 0 0 0 0
-0 -0 0 0 -0 -0 0 0 0 0 0 0 0 0 0 0 0 0 0 0 0 0 0 -0 0 0 0 0 0 0 0 0 0 0 0 0 0 0 0 0 0 0 0 0 0 0 0 0 0
0 -0 0 0 -0 0 0 0 0 0 0 0 0 0 0 0 0 0 0 0 0 0 0 0 0 0 0 0 0 0 0 0 0 0 0 0 0 0 0 0 0 0 0 0 0 0 0 0 0
-0 0 0 0 0 0 0 0 0 0 0 0 0 0 0 0 0 0 0 -0 0 0 1 1 1 0 0 0 0 0 0 0 0 0 0 0 0 0 0 0 0 0 0 0 0 0 0 0 0
0 0 0 0 0 0 0 0 0 0 0 0 0 0 0 0 0 0 0 0 0 0 0 1 1 1 0 0 0 0 0 0 0 0 0 0 0 0 0 0 0 0 0 0 0 0 0 0 0
0 0 -0 0 0 0 0 0 0 0 0 0 0 0 0 0 0 0 0 0 0 0 0 1 0 1 1 1 1 1 0 0 0 0 0 0 0 0 0 0 0 0 0 0 0 0 0 0 0
0 0 0 0 0 0 0 0 0 0 0 0 0 0 0 0 0 0 0 0 0 0 0 0 2 0 0 1 1 1 1 1 1 1 0 0 0 0 0 0 0 0 0 0 0 0 0 0 0
0 0 -0 0 0 0 0 0 0 0 0 0 0 0 0 0 0 0 0 0 0 0 0 0 0 1 0 1 1 1 1 1 1 1 0 0 0 0 0 0 0 1 1 1 0 0 0 0 0
0 0 0 0 0 0 0 0 0 0 0 0 0 0 0 0 0 0 0 0 0 0 0 0 1 1 0 1 2 1 1 0 1 0 0 0 0 0 0 0 0 1 1 1 1 0 0 0 0
0 0 0 0 0 0 0 0 0 0 0 0 0 0 0 0 0 0 0 0 0 0 0 0 0 0 1 0 1 1 1 3 2 1 1 1 1 0 0 0 0 0 1 0 0 0 0 0 0
0 0 0 0 0 0 0 0 0 0 0 0 0 0 0 0 0 0 0 0 0 0 0 0 0 0 0 1 0 1 0 1 3 1 1 1 2 1 1 1 0 0 0 0 0 0 0 0 0
0 0 0 0 0 0 0 -0 0 0 0 0 0 0 0 0 0 0 0 0 0 0 0 0 0 0 0 0 0 0 0 0 1 1 1 1 2 3 3 2 1 0 0 0 0 0 0 0 0
0 0 0 0 0 0 0 -0 0 -0 0 0 0 0 0 0 0 0 0 0 0 0 0 0 0 0 0 0 1 0 0 0 0 1 1 1 1 3 2 3 1 1 1 1 0 0 0 0 0
0 -0 0 0 0 -0 0 -0 0 0 0 0 0 0 0 0 0 0 0 0 0 0 0 0 0 0 0 0 0 0 0 0 0 0 2 3 2 2 2 3 2 1 1 1 1 1 1 0 0
-0 -0 -0 0 0 0 0 -0 0 0 0 0 0 0 0 0 0 0 0 0 0 0 0 0 0 0 0 0 0 0 0 0 0 0 0 2 1 1 2 3 2 1 3 2 1 1 1 1 1
0 0 0 0 0 0 0 0 0 0 0 0 0 0 0 0 0 0 0 0 0 0 0 0 0 0 0 0 0 0 1 0 0 0 0 1 2 1 2 1 2 3 1 1 1 1 1 1 0
0 0 0 0 0 0 0 0 0 0 0 0 0 0 0 0 0 0 0 0 0 0 0 0 0 0 0 0 0 0 0 0 0 0 0 1 1 1 2 1 2 2 2 2 1 2 1 1 1
0 0 0 0 0 0 0 0 0 0 0 0 0 0 0 0 0 0 0 0 0 0 0 0 0 1 0 0 0 0 0 0 0 0 1 1 1 1 3 1 2 1 0 2 1 1 1 1 1
0 0 0 0 0 0 0 0 0 0 0 0 0 0 0 0 0 0 0 0 0 0 0 0 0 0 0 0 0 0 0 0 0 0 1 3 1 1 1 2 1 1 0 1 2 2 1 1 1
0 0 0 0 0 0 0 0 0 0 0 0 0 0 0 0 0 0 0 0 0 0 0 0 0 0 1 1 0 0 1 1 0 0 2 0 2 1 2 2 2 1 1 0 1 1 1 1 1
0 0 0 0 0 0 0 0 0 0 0 0 0 0 0 0 0 0 0 0 0 0 0 0 0 0 0 2 1 1 1 0 0 0 0 2 2 2 2 2 2 3 1 1 1 0 1 1 1
0 0 0 0 0 0 -0 0 0 0 0 0 0 0 0 0 0 0 0 0 0 0 0 0 0 0 0 1 2 1 1 0 0 0 1 2 2 2 1 1 2 2 1 1 1 1 0 0 1
0 0 0 0 0 0 0 0 0 0 0 0 0 0 0 0 0 0 0 0 0 0 0 0 0 0 0 0 1 2 1 2 2 1 1 1 0 1 1 1 2 2 1 1 1 1 0 0 1
0 0 0 0 0 0 0 0 0 0 0 0 0 0 0 0 0 0 0 0 0 0 0 0 0 0 0 0 0 2 2 2 2 3 1 0 0 0 1 0 0 0 0 1 1 1 1 0 0
0 0 0 0 0 0 0 0 0 0 0 0 0 0 0 0 0 0 0 0 0 0 0 0 0 0 0 0 0 1 2 3 2 3 2 2 2 1 1 1 1 2 1 1 1 1 1 0 0
0 0 0 0 0 0 0 0 0 0 0 0 0 0 0 0 0 0 0 0 0 0 0 0 0 0 0 0 0 0 2 2 2 2 2 1 1 1 1 1 1 1 1 1 1 1 1 1 1
0 0 0 0 0 0 0 0 0 0 0 0 0 0 0 0 0 0 0 0 0 0 -0 -0 0 0 0 0 0 0 0 1 1 1 0 1 1 1 1 1 1 0 0 0 0 0 0 0 0
0 0 0 0 0 0 0 0 0 0 0 0 0 0 0 0 0 0 0 0 0 0 0 0 0 0 0 0 0 0 0 0 1 1 0 0 0 0 0 0 0 0 0 0 0 0 0 0 0
0 0 0 0 0 0 0 0 0 0 0 0 0 -0 0 0 0 0 0 0 0 0 0 0 0 0 0 0 -0 0 0 0 0 1 0 0 0 0 0 0 0 0 0 0 0 0 0 0 0
Wind_Speed_500mb
3 13 14 17 15 16 20 17 6 15 8 23 14 24 22 43 38 7 25 16 19 11 2 13 14 14 10 7 4 2 2 1 2 6 11 12 9 7 7 10 12 14 17 21 20 17 18 20 20
4 13 13 22 16 23 7 11 12 14 16 15 3 8 8 32 32 30 24 19 16 8 7 16 16 15 11 6 3 2 2 2 4 6 10 13 11 10 11 13 15 16 19 22 20 18 18 19 21
4 12 26 18 23 22 16 16 14 13 8 11 3 22 24 20 25 21 20 21 16 10 13 17 16 13 10 8 7 5 5 5 7 9 10 12 13 13 15 17 17 18 20 24 22 20 19 18 19
3 13 22 20 33 12 20 16 11 13 10 11 7 25 22 18 9 13 12 15 16 11 8 8 16 15 12 10 9 8 7 8 10 10 11 12 15 16 18 20 20 20 22 25 26 23 23 22 22
17 26 18 29 10 8 5 10 9 9 6 15 10 20 22 20 14 8 8 10 10 8 3 10 15 15 14 14 13 12 11 11 11 11 12 13 15 17 20 22 23 23 24 26 28 29 29 28 28
28 22 25 28 19 10 2 9 11 7 11 13 4 10 13 16 17 10 4 3 4 4 2 10 11 14 15 16 17 16 16 15 14 14 15 16 17 19 21 23 25 26 27 28 30 32 33 33 33
29 20 31 27 24 12 9 11 9 13 10 15 16 15 16 19 17 11 6 6 5 3 4 5 17 10 18 19 19 19 20 20 19 19 19 19 20 21 23 25 27 28 30 32 33 35 36 36 36
25 16 17 15 15 11 11 16 4 7 19 8 12 6 18 18 17 12 9 9 10 9 8 9 14 11 20 14 19 22 23 24 25 25 25 25 26 26 27 28 31 32 33 35 37 38 38 38 39
17 19 21 6 8 15 9 16 6 4 13 5 11 12 12 15 16 15 15 14 14 13 17 17 16 6 16 17 22 28 30 30 30 31 32 32 32 27 30 33 33 34 36 38 39 40 40 40 40
24 19 22 19 16 9 6 16 9 14 9 9 10 12 17 18 18 19 19 21 21 22 20 19 13 15 20 21 26 25 22 29 26 29 30 34 30 26 27 31 37 36 39 40 42 43 43 44 41
6 8 14 8 10 11 7 12 7 15 18 11 18 27 27 25 24 22 25 23 23 24 24 24 25 20 26 28 30 19 28 26 27 25 27 29 25 27 28 29 31 36 38 43 38 42 47 45 36
11 12 3 10 6 9 6 12 17 9 16 13 21 26 28 27 26 25 27 27 29 29 27 26 25 23 20 28 31 32 35 37 27 32 30 32 35 27 30 29 28 32 27 30 30 35 37 35 35
10 7 4 6 8 7 6 20 14 16 6 17 24 28 28 26 23 23 22 24 27 30 30 29 28 27 32 30 32 35 35 39 43 33 34 33 36 38 35 34 32 33 30 32 33 35 38 40 41
5 2 9 6 2 13 16 23 18 26 8 20 22 25 23 20 17 18 16 20 22 27 30 31 32 35 37 37 38 37 37 40 41 37 37 32 37 40 40 39 33 33 33 35 36 40 37 41 43
5 19 15 17 6 19 9 38 37 18 13 24 27 21 18 16 14 14 19 23 25 27 29 31 33 31 35 40 38 36 40 42 47 45 38 41 38 37 39 41 35 31 34 39 43 46 36 41 43
20 16 21 27 12 6 16 24 14 4 21 27 23 21 15 13 13 18 20 23 25 27 29 32 30 35 42 41 41 35 42 44 42 41 39 30 47 30 33 33 32 29 39 36 38 51 52 47 45
19 13 15 13 13 8 20 30 26 20 24 28 19 18 13 14 11 17 21 24 28 30 34 35 36 36 38 44 52 45 43 47 46 40 44 40 30 32 30 33 30 34 36 36 39 46 45 51 54
24 22 23 23 16 21 29 35 28 36 33 32 16 10 10 11 11 16 21 26 29 32 34 36 36 38 44 47 46 51 47 49 51 48 43 40 36 36 37 36 42 33 33 38 38 44 45 51 64
20 23 27 25 20 19 29 37 38 41 37 29 15 6 8 9 13 16 20 23 28 32 38 43 44 44 40 39 38 40 46 53 51 52 49 42 36 37 36 37 41 37 39 48 44 45 49 49 53
22 28 28 23 22 31 39 44 41 38 4 7 6 9 10 13 17 19 21 23 28 33 39 43 47 46 45 37 36 37 43 48 53 51 56 53 42 38 36 38 37 40 44 46 50 58 58 55 51
23 24 25 32 35 38 40 39 31 8 5 8 13 9 13 12 19 22 24 27 30 33 37 44 47 47 46 46 37 32 42 47 42 48 36 40 28 35 36 36 40 35 41 42 47 52 52 63 59
23 20 24 34 35 30 35 38 36 15 18 23 19 16 12 13 20 25 30 32 33 35 36 40 45 51 44 42 39 27 34 40 42 50 46 55 58 32 38 37 37 43 39 41 42 43 53 55 67
26 24 32 37 39 38 40 19 7 9 17 17 26 13 11 8 16 32 36 38 36 35 37 40 41 46 45 36 39 28 25 35 37 45 45 21 26 33 33 38 44 34 31 37 41 43 45 51 60
22 28 36 42 33 23 15 9 25 27 33 20 22 24 15 19 21 32 38 41 43 39 39 37 42 43 43 36 33 28 28 25 31 30 30 28 32 33 36 44 31 23 40 45 45 44 45 47 54
21 29 23 15 21 26 18 30 38 25 14 12 21 29 26 21 31 38 48 54 50 47 37 42 42 39 41 38 42 38 23 24 23 17 23 33 30 30 23 32 66 37 45 44 48 52 55 55 57
34 18 14 35 29 40 39 36 12 11 11 13 25 24 28 24 28 40 41 50 49 40 35 36 37 34 37 39 43 50 39 23 16 14 15 20 15 21 35 28 24 20 28 38 47 49 54 54 54
19 25 16 25 32 32 27 28 44 39 33 21 25 31 17 25 33 34 33 36 40 37 35 30 27 30 35 40 30 38 57 44 30 21 16 16 16 18 29 38 37 37 43 49 50 46 47 47 49
22 22 22 16 24 34 33 43 32 36 35 38 53 62 65 32 38 35 29 27 31 33 41 42 33 32 32 39 33 15 41 46 36 30 24 16 20 21 19 24 33 46 50 52 52 47 45 43 43
20 24 26 25 20 30 35 21 45 48 31 36 46 55 51 70 57 38 23 24 31 28 36 41 39 38 40 35 36 23 14 53 34 26 25 30 27 25 31 34 42 46 46 45 45 43 41 45 42
17 24 20 15 26 26 27 34 40 28 24 18 21 25 38 43 43 36 28 23 26 30 36 39 41 41 41 39 34 32 25 49 35 33 27 29 29 35 38 38 38 43 44 43 41 38 35 36 36
Wind_Direction_500mb
325 318 303 274 247 231 245 107 288 23 14 1 349 341 41 42 20 53 73 43 67 120 236 182 182 178 177 173 166 147 141 147 230 255 233 230 234 226 201 193 189 184 182 179 185 194 202 208 212
170 278 273 273 248 244 141 71 31 5 3 335 344 295 30 44 13 71 55 39 59 151 185 186 184 181 183 202 227 237 263 283 267 251 239 237 240 238 219 206 207 202 199 198 202 205 208 216 224
178 258 270 245 246 284 60 68 11 7 19 352 313 32 22 355 16 27 33 40 48 117 148 198 186 187 195 210 219 233 251 264 267 244 236 239 241 241 230 224 223 220 215 213 213 215 216 226 232
274 241 252 260 269 63 3 47 342 8 91 14 346 93 64 37 36 38 39 46 48 80 142 210 187 192 210 233 241 246 249 254 257 256 247 242 239 239 233 235 237 230 227 224 224 226 228 235 240
223 258 244 280 239 74 23 14 331 27 32 7 308 95 68 41 46 50 40 49 67 75 190 179 187 201 214 229 237 250 252 251 253 257 259 250 249 242 239 240 241 240 236 232 231 235 242 249 253
240 256 258 234 173 125 150 332 336 357 44 24 53 122 74 49 37 19 14 37 26 89 133 292 222 224 227 234 238 245 250 253 254 254 252 255 252 247 244 243 241 244 245 243 239 240 246 252 257
249 259 258 285 107 176 25 305 359 328 38 41 334 255 111 26 3 2 350 299 274 247 222 224 318 310 259 251 251 253 254 254 254 254 256 255 254 251 249 247 247 246 248 248 249 249 252 255 258
269 275 274 260 142 205 95 278 327 349 61 314 338 26 45 346 339 335 325 298 272 290 262 252 198 284 317 290 294 272 262 259 257 254 252 254 252 252 253 251 250 251 251 251 252 253 254 257 260
248 251 239 138 303 98 101 281 79 292 282 31 36 35 351 342 335 320 307 298 283 281 270 271 262 211 260 266 260 288 280 262 258 257 256 255 255 256 257 252 252 251 253 256 256 256 257 259 262
251 265 60 38 16 348 9 290 349 276 214 215 319 323 321 318 319 315 310 303 291 294 292 295 221 252 260 254 267 290 291 300 279 257 254 256 248 241 245 258 270 269 260 256 256 258 258 259 259
285 13 86 125 19 310 329 239 317 296 267 37 321 312 311 305 301 301 299 296 294 295 290 287 285 280 266 266 261 253 261 253 279 264 258 252 249 253 251 251 257 273 266 258 261 265 260 254 252
120 60 335 87 149 251 269 348 287 284 316 323 300 309 306 304 301 297 296 296 294 291 285 284 280 288 273 267 260 266 260 260 245 266 248 253 247 248 247 251 250 252 258 263 256 249 258 256 253
91 111 201 167 213 255 320 264 288 271 227 295 306 308 305 303 302 299 302 299 298 294 288 282 284 277 256 248 264 264 260 259 262 245 262 253 247 245 248 248 247 247 254 257 256 256 252 252 251
79 248 182 201 192 228 275 293 257 265 222 291 301 306 298 303 310 311 310 316 316 309 303 290 288 275 265 263 255 252 262 261 258 261 256 253 252 252 247 250 252 255 252 254 249 264 255 258 255
219 240 185 215 270 289 312 273 224 236 271 293 293 303 295 288 311 322 321 319 319 318 316 309 301 298 281 270 267 261 260 259 255 252 251 242 253 251 246 249 251 259 265 264 240 241 256 260 260
236 243 254 155 153 163 246 294 89 307 275 288 296 292 280 290 312 324 326 328 330 326 318 315 312 291 280 277 276 264 255 258 256 255 254 257 279 251 260 257 261 271 273 270 267 257 248 248 257
192 328 334 317 175 306 264 299 294 286 292 290 299 264 280 298 316 330 336 339 340 339 336 328 312 308 292 279 269 263 261 249 250 254 254 245 238 256 252 254 246 251 267 266 267 259 261 256 251
345 332 321 305 332 329 305 294 303 302 293 291 284 244 279 299 334 332 338 344 347 349 348 342 333 315 293 288 279 264 249 251 246 247 248 252 240 245 249 255 263 259 261 264 270 270 266 263 255
318 304 298 296 339 298 297 296 289 295 292 280 247 288 283 305 320 334 337 343 347 350 350 350 344 335 319 298 281 263 249 244 245 242 241 246 243 244 245 254 266 277 271 269 272 271 275 266 268
296 292 296 325 326 320 303 295 294 277 260 308 314 261 280 313 329 336 338 342 345 349 350 349 348 344 335 316 285 258 249 250 244 242 238 225 225 235 240 249 255 265 269 273 273 269 268 268 264
302 312 334 314 310 288 280 292 296 99 159 194 230 244 269 311 328 327 328 330 337 343 350 350 350 347 350 331 310 285 240 241 249 243 227 236 216 230 238 242 253 262 265 275 280 277 271 270 265
310 11 309 300 301 301 312 292 284 261 190 183 232 242 311 320 330 333 332 330 332 333 337 346 350 352 347 360 324 290 249 249 246 245 240 243 224 217 235 243 240 250 261 266 284 286 275 272 267
299 327 300 287 282 289 286 253 189 246 239 249 215 214 279 304 318 331 328 326 322 324 333 339 343 349 358 9 350 310 270 258 251 252 239 200 260 245 231 234 242 256 266 275 280 285 283 277 274
301 286 291 279 259 253 303 312 289 301 315 322 297 333 329 309 324 322 320 317 321 321 326 337 338 347 356 1 13 337 301 275 271 249 244 239 242 249 261 266 259 237 281 281 283 284 287 287 286
282 316 313 298 305 294 340 322 311 328 350 356 330 310 296 326 324 328 323 323 317 313 326 330 331 341 355 360 8 3 335 300 280 269 243 258 260 248 271 267 273 304 278 288 291 292 291 289 285
299 305 293 299 312 310 306 281 322 203 171 339 295 346 338 323 316 320 330 326 332 341 335 318 325 334 355 359 9 12 360 351 311 301 274 303 295 299 279 299 312 318 302 294 290 290 289 289 285
308 279 3 289 285 280 306 321 326 44 21 330 284 229 248 304 314 329 338 340 339 336 331 329 322 336 345 356 355 17 11 1 351 342 323 301 285 292 300 319 329 328 314 303 302 300 289 285 283
227 298 302 301 295 296 303 312 290 7 329 346 7 10 350 303 348 329 323 329 336 329 344 316 9 344 335 340 342 3 0 355 351 355 341 357 334 349 331 307 304 307 311 306 301 296 291 279 284
298 267 270 286 303 305 305 294 337 322 349 357 341 342 337 311 330 319 296 314 325 322 333 343 343 338 344 338 316 333 333 347 347 347 344 351 355 333 309 304 307 308 309 308 303 300 296 288 286
289 290 296 284 292 295 294 282 291 317 16 353 327 298 310 297 327 304 308 344 343 331 333 332 331 329 328 326 317 288 317 339 339 341 330 345 347 333 325 320 312 310 310 309 308 309 303 296 294
Wind_Speed_850mb
3 13 14 17 15 16 20 17 6 15 8 23 14 24 22 43 38 7 25 16 19 11 2 13 14 14 10 7 4 2 2 1 2 6 11 12 9 7 7 10 12 14 17 21 20 17 18 20 20
4 13 13 22 16 23 7 11 12 14 16 15 3 8 8 32 32 30 24 19 16 8 7 16 16 15 11 6 3 2 2 2 4 6 10 13 11 10 11 13 15 16 19 22 20 18 18 19 21
4 12 26 18 23 22 16 16 14 13 8 11 3 22 24 20 25 21 20 21 16 10 13 17 16 13 10 8 7 5 5 5 7 9 10 12 13 13 15 17 17 18 20 24 22 20 19 18 19
3 13 22 20 33 12 20 16 11 13 10 11 7 25 22 18 9 13 12 15 16 11 8 8 16 15 12 10 9 8 7 8 10 10 11 12 15 16 18 20 20 20 22 25 26 23 23 22 22
17 26 18 29 10 8 5 10 9 9 6 15 10 20 22 20 14 8 8 10 10 8 3 10 15 15 14 14 13 12 11 11 11 11 12 13 15 17 20 22 23 23 24 26 28 29 29 28 28
28 22 25 28 19 10 2 9 11 7 11 13 4 10 13 16 17 10 4 3 4 4 2 10 11 14 15 16 17 16 16 15 14 14 15 16 17 19 21 23 25 26 27 28 30 32 33 33 33
29 20 31 27 24 12 9 11 9 13 10 15 16 15 16 19 17 11 6 6 5 3 4 5 17 10 18 19 19 19 20 20 19 19 19 19 20 21 23 25 27 28 30 32 33 35 36 36 36
25 16 17 15 15 11 11 16 4 7 19 8 12 6 18 18 17 12 9 9 10 9 8 9 14 11 20 14 19 22 23 24 25 25 25 25 26 26 27 28 31 32 33 35 37 38 38 38 39
17 19 21 6 8 15 9 16 6 4 13 5 11 12 12 15 16 15 15 14 14 13 17 17 16 6 16 17 22 28 30 30 30 31 32 32 32 27 30 33 33 34 36 38 39 40 40 40 40
24 19 22 19 16 9 6 16 9 14 9 9 10 12 17 18 18 19 19 21 21 22 20 19 13 15 20 21 26 25 22 29 26 29 30 34 30 26 27 31 37 36 39 40 42 43 43 44 41
6 8 14 8 10 11 7 12 7 15 18 11 18 27 27 25 24 22 25 23 23 24 24 24 25 20 26 28 30 19 28 26 27 25 27 29 25 27 28 29 31 36 38 43 38 42 47 45 36
11 12 3 10 6 9 6 12 17 9 16 13 21 26 28 27 26 25 27 27 29 29 27 26 25 23 20 28 31 32 35 37 27 32 30 32 35 27 30 29 28 32 27 30 30 35 37 35 35
10 7 4 6 8 7 6 20 14 16 6 17 24 28 28 26 23 23 22 24 27 30 30 29 28 27 32 30 32 35 35 39 43 33 34 33 36 38 35 34 32 33 30 32 33 35 38 40 41
5 2 9 6 2 13 16 23 18 26 8 20 22 25 23 20 17 18 16 20 22 27 30 31 32 35 37 37 38 37 37 40 41 37 37 32 37 40 40 39 33 33 33 35 36 40 37 41 43
5 19 15 17 6 19 9 38 37 18 13 24 27 21 18 16 14 14 19 23 25 27 29 31 33 31 35 40 38 36 40 42 47 45 38 41 38 37 39 41 35 31 34 39 43 46 36 41 43
20 16 21 27 12 6 16 24 14 4 21 27 23 21 15 13 13 18 20 23 25 27 29 32 30 35 42 41 41 35 42 44 42 41 39 30 47 30 33 33 32 29 39 36 38 51 52 47 45
19 13 15 13 13 8 20 30 26 20 24 28 19 18 13 14 11 17 21 24 28 30 34 35 36 36 38 44 52 45 43 47 46 40 44 40 30 32 30 33 30 34 36 36 39 46 45 51 54
24 22 23 23 16 21 29 35 28 36 33 32 16 10 10 11 11 16 21 26 29 32 34 36 36 38 44 47 46 51 47 49 51 48 43 40 36 36 37 36 42 33 33 38 38 44 45 51 64
20 23 27 25 20 19 29 37 38 41 37 29 15 6 8 9 13 16 20 23 28 32 38 43 44 44 40 39 38 40 46 53 51 52 49 42 36 37 36 37 41 37 39 48 44 45 49 49 53
22 28 28 23 22 31 39 44 41 38 4 7 6 9 10 13 17 19 21 23 28 33 39 43 47 46 45 37 36 37 43 48 53 51 56 53 42 38 36 38 37 40 44 46 50 58 58 55 51
23 24 25 32 35 38 40 39 31 8 5 8 13 9 13 12 19 22 24 27 30 33 37 44 47 47 46 46 37 32 42 47 42 48 36 40 28 35 36 36 40 35 41 42 47 52 52 63 59
23 20 24 34 35 30 35 38 36 15 18 23 19 16 12 13 20 25 30 32 33 35 36 40 45 51 44 42 39 27 34 40 42 50 46 55 58 32 38 37 37 43 39 41 42 43 53 55 67
26 24 32 37 39 38 40 19 7 9 17 17 26 13 11 8 16 32 36 38 36 35 37 40 41 46 45 36 39 28 25 35 37 45 45 21 26 33 33 38 44 34 31 37 41 43 45 51 60
22 28 36 42 33 23 15 9 25 27 33 20 22 24 15 19 21 32 38 41 43 39 39 37 42 43 43 36 33 28 28 25 31 30 30 28 32 33 36 44 31 23 40 45 45 44 45 47 54
21 29 23 15 21 26 18 30 38 25 14 12 21 29 26 21 31 38 48 54 50 47 37 42 42 39 41 38 42 38 23 24 23 17 23 33 30 30 23 32 66 37 45 44 48 52 55 55 57
34 18 14 35 29 40 39 36 12 11 11 13 25 24 28 24 28 40 41 50 49 40 35 36 37 34 37 39 43 50 39 23 16 14 15 20 15 21 35 28 24 20 28 38 47 49 54 54 54
19 25 16 25 32 32 27 28 44 39 33 21 25 31 17 25 33 34 33 36 40 37 35 30 27 30 35 40 30 38 57 44 30 21 16 16 16 18 29 38 37 37 43 49 50 46 47 47 49
22 22 22 16 24 34 33 43 32 36 35 38 53 62 65 32 38 35 29 27 31 33 41 42 33 32 32 39 33 15 41 46 36 30 24 16 20 21 19 24 33 46 50 52 52 47 45 43 43
20 24 26 25 20 30 35 21 45 48 31 36 46 55 51 70 57 38 23 24 31 28 36 41 39 38 40 35 36 23 14 53 34 26 25 30 27 25 31 34 42 46 46 45 45 43 41 45 42
17 24 20 15 26 26 27 34 40 28 24 18 21 25 38 43 43 36 28 23 26 30 36 39 41 41 41 39 34 32 25 49 35 33 27 29 29 35 38 38 38 43 44 43 41 38 35 36 36
Wind_Direction_850mb
325 318 303 274 247 231 245 107 288 23 14 1 349 341 41 42 20 53 73 43 67 120 236 182 182 178 177 173 166 147 141 147 230 255 233 230 234 226 201 193 189 184 182 179 185 194 202 208 212
170 278 273 273 248 244 141 71 31 5 3 335 344 295 30 44 13 71 55 39 59 151 185 186 184 181 183 202 227 237 263 283 267 251 239 237 240 238 219 206 207 202 199 198 202 205 208 216 224
178 258 270 245 246 284 60 68 11 7 19 352 313 32 22 355 16 27 33 40 48 117 148 198 186 187 195 210 219 233 251 264 267 244 236 239 241 241 230 224 223 220 215 213 213 215 216 226 232
274 241 252 260 269 63 3 47 342 8 91 14 346 93 64 37 36 38 39 46 48 80 142 210 187 192 210 233 241 246 249 254 257 256 247 242 239 239 233 235 237 230 227 224 224 226 228 235 240
223 258 244 280 239 74 23 14 331 27 32 7 308 95 68 41 46 50 40 49 67 75 190 179 187 201 214 229 237 250 252 251 253 257 259 250 249 242 239 240 241 240 236 232 231 235 242 249 253
240 256 258 234 173 125 150 332 336 357 44 24 53 122 74 49 37 19 14 37 26 89 133 292 222 224 227 234 238 245 250 253 254 254 252 255 252 247 244 243 241 244 245 243 239 240 246 252 257
249 259 258 285 107 176 25 305 359 328 38 41 334 255 111 26 3 2 350 299 274 247 222 224 318 310 259 251 251 253 254 254 254 254 256 255 254 251 249 247 247 246 248 248 249 249 252 255 258
269 275 274 260 142 205 95 278 327 349 61 314 338 26 45 346 339 335 325 298 272 290 262 252 198 284 317 290 294 272 262 259 257 254 252 254 252 252 253 251 250 251 251 251 252 253 254 257 260
248 251 239 138 303 98 101 281 79 292 282 31 36 35 351 342 335 320 307 298 283 281 270 271 262 211 260 266 260 288 280 262 258 257 256 255 255 256 257 252 252 251 253 256 256 256 257 259 262
251 265 60 38 16 348 9 290 349 276 214 215 319 323 321 318 319 315 310 303 291 294 292 295 221 252 260 254 267 290 291 300 279 257 254 256 248 241 245 258 270 269 260 256 256 258 258 259 259
285 13 86 125 19 310 329 239 317 296 267 37 321 312 311 305 301 301 299 296 294 295 290 287 285 280 266 266 261 253 261 253 279 264 258 252 249 253 251 251 257 273 266 258 261 265 260 254 252
120 60 335 87 149 251 269 348 287 284 316 323 300 309 306 304 301 297 296 296 294 291 285 284 280 288 273 267 260 266 260 260 245 266 248 253 247 248 247 251 250 252 258 263 256 249 258 256 253
91 111 201 167 213 255 320 264 288 271 227 295 306 308 305 303 302 299 302 299 298 294 288 282 284 277 256 248 264 264 260 259 262 245 262 253 247 245 248 248 247 247 254 257 256 256 252 252 251
79 248 182 201 192 228 275 293 257 265 222 291 301 306 298 303 310 311 310 316 316 309 303 290 288 275 265 263 255 252 262 261 258 261 256 253 252 252 247 250 252 255 252 254 249 264 255 258 255
219 240 185 215 270 289 312 273 224 236 271 293 293 303 295 288 311 322 321 319 319 318 316 309 301 298 281 270 267 261 260 259 255 252 251 242 253 251 246 249 251 259 265 264 240 241 256 260 260
236 243 254 155 153 163 246 294 89 307 275 288 296 292 280 290 312 324 326 328 330 326 318 315 312 291 280 277 276 264 255 258 256 255 254 257 279 251 260 257 261 271 273 270 267 257 248 248 257
192 328 334 317 175 306 264 299 294 286 292 290 299 264 280 298 316 330 336 339 340 339 336 328 312 308 292 279 269 263 261 249 250 254 254 245 238 256 252 254 246 251 267 266 267 259 261 256 251
345 332 321 305 332 329 305 294 303 302 293 291 284 244 279 299 334 332 338 344 347 349 348 342 333 315 293 288 279 264 249 251 246 247 248 252 240 245 249 255 263 259 261 264 270 270 266 263 255
318 304 298 296 339 298 297 296 289 295 292 280 247 288 283 305 320 334 337 343 347 350 350 350 344 335 319 298 281 263 249 244 245 242 241 246 243 244 245 254 266 277 271 269 272 271 275 266 268
296 292 296 325 326 320 303 295 294 277 260 308 314 261 280 313 329 336 338 342 345 349 350 349 348 344 335 316 285 258 249 250 244 242 238 225 225 235 240 249 255 265 269 273 273 269 268 268 264
302 312 334 314 310 288 280 292 296 99 159 194 230 244 269 311 328 327 328 330 337 343 350 350 350 347 350 331 310 285 240 241 249 243 227 236 216 230 238 242 253 262 265 275 280 277 271 270 265
310 11 309 300 301 301 312 292 284 261 190 183 232 242 311 320 330 333 332 330 332 333 337 346 350 352 347 360 324 290 249 249 246 245 240 243 224 217 235 243 240 250 261 266 284 286 275 272 267
299 327 300 287 282 289 286 253 189 246 239 249 215 214 279 304 318 331 328 326 322 324 333 339 343 349 358 9 350 310 270 258 251 252 239 200 260 245 231 234 242 256 266 275 280 285 283 277 274
301 286 291 279 259 253 303 312 289 301 315 322 297 333 329 309 324 322 320 317 321 321 326 337 338 347 356 1 13 337 301 275 271 249 244 239 242 249 261 266 259 237 281 281 283 284 287 287 286
282 316 313 298 305 294 340 322 311 328 350 356 330 310 296 326 324 328 323 323 317 313 326 330 331 341 355 360 8 3 335 300 280 269 243 258 260 248 271 267 273 304 278 288 291 292 291 289 285
299 305 293 299 312 310 306 281 322 203 171 339 295 346 338 323 316 320 330 326 332 341 335 318 325 334 355 359 9 12 360 351 311 301 274 303 295 299 279 299 312 318 302 294 290 290 289 289 285
308 279 3 289 285 280 306 321 326 44 21 330 284 229 248 304 314 329 338 340 339 336 331 329 322 336 345 356 355 17 11 1 351 342 323 301 285 292 300 319 329 328 314 303 302 300 289 285 283
227 298 302 301 295 296 303 312 290 7 329 346 7 10 350 303 348 329 323 329 336 329 344 316 9 344 335 340 342 3 0 355 351 355 341 357 334 349 331 307 304 307 311 306 301 296 291 279 284
298 267 270 286 303 305 305 294 337 322 349 357 341 342 337 311 330 319 296 314 325 322 333 343 343 338 344 338 316 333 333 347 347 347 344 351 355 333 309 304 307 308 309 308 303 300 296 288 286
289 290 296 284 292 295 294 282 291 317 16 353 327 298 310 297 327 304 308 344 343 331 333 332 331 329 328 326 317 288 317 339 339 341 330 345 347 333 325 320 312 310 310 309 308 309 303 296 294